STARLINK-32952, 63146

Orbit data source: Space-Track

STARLINK-32952, 63146 is a payload satellite owned by SpaceX/Seattle (US) in LEO that was launched on Mon, 03 Mar 2025 UTC via an FALCON 9 launch vehicle from the Air Force Eastern Test Range (AFETR). Payload-class satellites include a variety of spacecraft equipped with specific instruments for various scientific and technological missions. These include communications satellites like Starlink; space stations such as the ISS; scientific satellites like the Hubble; Earth observation satellites from companies like Planet Labs, Umbra, and HawkEye 360; GPS; miniature CubeSats for education and research; and military/defense satellites.

Loading next visibility...
Identifier
63146, 2025-043Q
Orbit
LEO
Country
Flag of USUS
Related business
Manufacturer
SpaceX/Seattle
Mission
Operational Commercial Communications
Bus & Motor
STARLINK V2M, Unknown motor
Mass
730 kg wet, ~700 kg dry
Launch date (UTC)
2025-03-03 (11 months ago)
Launch vehicle
FALCON 9
Launch site
Air Force Eastern Test Range (AFETR)
Object type
Payload
Rocket body
Debris
Shape & HBR
Box + 2 Pan, 17.7 m
Radar Cross Section
33.884 m², Large (>1 m²)

Expand to show TLE details & history
Last TLE update: 12 hours ago

TLE from 12 hours ago
0 STARLINK-32952
1 63146U 25043Q   26036.91211543  .00048942  00000-0  17742-2 0  9997
2 63146  43.0010 202.4939 0001604 256.7674 103.2999 15.27617319 53055
Epoch: 2026-02-05T21:53Z
TLE epoch observation values (Epoch: 2026-02-05T21:53:26.773Z)
Latitude
0.00001°
Longitude
98.07482°
Altitude
482.966 km
Speed
7.626 km/s
True Right ascension
13h 29m 58s
True Declination
0° 00' 00"
Sunlit
Object was in full shadow at epoch
Visualization orbit readout
Latitude
Unknown
Longitude
Unknown
Altitude
Unknown
Speed
Unknown
Apparent Right ascension
Unknown
Apparent Declination
Unknown
Sunlit
N/A
Visualization observer readout
Local Sidereal Time
11:37:04
Azimuth
Unknown
Elevation
Unknown
Doppler factor
Unknown
Orbital elements
Apogee altitude
485.983 km
Perigee altitude
483.782 km
Semi-major axis
6,863.019 km
Eccentricity
0.00016
Inclination
43.001°
RAAN
202.4939°
Arg. of periapsis
256.7674°
True anomaly
103.31779°
Mean anomaly
103.2999°
Eccentric anomaly
103.30884°
Mean motion
3.81742 °/min
Orbital period
94.3 mins
BSTAR
0.0017742
Loading maneuver chart data...
Computing Atmospheric mass density...
Loading historical data...
Loading historical data...
Loading historical data...
Loading historical data...
Loading historical data...
Loading historical data...
Loading historical data...

Documentation

Showing up to 5 results
|